This demonstration page uses our WeatherBlox Daily Observations layout. Learn more.

Left ArrowRight Arrow

Hourly Observations for September 16, 2021

Temp ( °F °C ) Dew Point ( °F °C ) Humidity (%) Winds ( mph kmh ) Pressure ( in mb ) Visibility ( mi km ) Precip ( " mm )
12:51 am 00:51 Clear 70 21.1 44 6.7 39 39 N N/A 29.75 1007 10 16 N/A
1:51 am 01:51 Clear 66 18.9 45 7.2 47 47 ENE 6 9 29.75 1007 10 16 N/A
2:51 am 02:51 Clear 67 19.4 44 6.7 44 44 SE 3 6 29.74 1007 10 16 N/A
3:51 am 03:51 Clear 63 17.2 45 7.2 52 52 N N/A 29.75 1007 10 16 N/A
4:51 am 04:51 Clear 62 16.7 45 7.2 54 54 NNE 3 6 29.76 1008 10 16 N/A
5:51 am 05:51 Clear 61 16.1 45 7.2 56 56 N N/A 29.78 1009 10 16 N/A
6:51 am 06:51 Sunny 63 17.2 46 7.8 54 54 ENE 6 9 29.82 1010 10 16 N/A
7:51 am 07:51 Sunny 75 23.9 46 7.8 36 36 S 5 7 29.82 1010 10 16 N/A
8:51 am 08:51 Sunny 80 26.7 46 7.8 30 30 SSE 6 9 29.82 1010 10 16 N/A
9:51 am 09:51 Sunny 86 30 45 7.2 24 24 VRB 6 9 29.81 1010 10 16 N/A
10:51 am 10:51 Sunny 89 31.7 44 6.7 21 21 VRB 6 9 29.80 1009 10 16 N/A
11:51 am 11:51 Sunny 93 33.9 43 6.1 18 18 VRB 5 7 29.77 1008 10 16 N/A
12:51 pm 12:51 Sunny 95 35 42 5.6 16 16 undefined N/A 29.75 1007 10 16 N/A
1:51 pm 13:51 Sunny 95 35 43 6.1 17 17 W 5 7 29.72 1007 10 16 N/A
2:51 pm 14:51 Sunny 97 36.1 43 6.1 16 16 W 12 19 29.70 1006 10 16 N/A
3:51 pm 15:51 Sunny 97 36.1 43 6.1 16 16 WNW 9 15 29.70 1006 10 16 N/A
4:51 pm 16:51 Sunny 96 35.6 44 6.7 17 17 NW 9 15 29.70 1006 10 16 N/A
5:51 pm 17:51 Sunny 93 33.9 44 6.7 18 18 NW 9 15 29.71 1006 10 16 N/A
6:51 pm 18:51 Clear 84 28.9 46 7.8 27 27 NNW 7 11 29.73 1007 10 16 N/A
7:51 pm 19:51 Clear 82 27.8 46 7.8 28 28 WNW 6 9 29.73 1007 10 16 N/A
8:51 pm 20:51 Clear 76 24.4 47 8.3 36 36 NW 7 11 29.76 1008 10 16 N/A
9:51 pm 21:51 Clear 75 23.9 47 8.3 37 37 WNW 5 7 29.75 1008 10 16 N/A
10:51 pm 22:51 Clear 74 23.3 46 7.8 37 37 N 6 9 29.76 1008 10 16 N/A
11:51 pm 23:51 Clear 73 22.8 46 7.8 38 38 N 7 11 29.78 1009 10 16 N/A

Powered by AerisWeather